Location: Shepherdstown, WV
(39.4326°N, 77.8042°W)
Time: 04:19:44
(UTC-04:00)

Vanguard 1 - Pass Details

Date: 29 September 2021
Orbit: 653 x 3829 km, 34.2° (Epoch: 18 October)

Event Time Altitude Azimuth Distance (km) Brightness Sun altitude
Rises 03:14:14 0° 283° (WNW) 7,884 14.4 -42.4°
Enters shadow 03:15:43 - 281° (W) 7,692 14.3 -42.2°
Exits shadow 03:53:22 - 178° (S) 6,231 13.9 -36.4°
Sets 03:53:58 0° 176° (S) 6,297 14.0 -36.3°
